AirNav   Everest Fuels
 
 1177 users online  

7Y4 Bagley Municipal Airport
Bagley, Minnesota, USA

GOING TO BAGLEY?


FAA INFORMATION EFFECTIVE 26 JANUARY 2023

Location

FAA Identifier: 7Y4
Lat/Long: 47-31-26.5125N 095-21-49.3650W
47-31.441875N 095-21.822750W
47.5240313,-95.3637125
(estimated)
Elevation: 1502.6 ft. / 458 m (estimated)
Variation: 05E (1985)
From city: 1 mile E of BAGLEY, MN
Time zone: UTC -6 (UTC -5 during Daylight Saving Time)
Zip code: 56621

Airport Operations

Airport use: Open to the public
Activation date: 09/1974
Control tower: no
ARTCC: MINNEAPOLIS CENTER
FSS: PRINCETON FLIGHT SERVICE STATION
NOTAMs facility: PNM (NOTAM-D service available)
Attendance: UNATNDD
Wind indicator: lighted
Segmented circle: no
Lights: ACTVT OR INCR INTST REIL RWY 14 & 32; PAPI RWY 14 & 32; MIRL RWY 14/32 - CTAF. MIRL RWY 14/32 PRESET LOW INTST.
Beacon: white-green (lighted land airport)
Operates sunset to sunrise.

Airport Communications

CTAF: 122.9
WX AWOS-3 at FSE (17 nm W): 118.35 (218-435-6448)
WX AWOS-3 at BJI (17 nm E): 119.275 (218-755-2575)

Nearby radio navigation aids

VOR radial/distance  VOR name  Freq  Var
IDJr272/17.9LAKE BEMIDJI VOR/DME110.0001E

Airport Services

Parking: tiedowns
Airframe service: NONE
Powerplant service: NONE
Bottled oxygen: NONE
Bulk oxygen: NONE

Runway Information

Runway 14/32

Dimensions: 3800 x 75 ft. / 1158 x 23 m
PAVED & EXTDD ON SE END.
Surface: asphalt, in fair condition
Runway edge lights: medium intensity
RUNWAY 14  RUNWAY 32
Latitude: 47-31.700783N47-31.182967N
Longitude: 095-22.081517W095-21.563983W
Elevation: 1497.0 ft.1502.6 ft.
Traffic pattern: leftleft
Runway heading: 141 magnetic, 146 true321 magnetic, 326 true
Markings: nonprecision, in fair conditionnonprecision, in fair condition
Visual slope indicator: 4-light PAPI on left4-light PAPI on left
Runway end identifier lights: yesyes

Airport Ownership and Management from official FAA records

Ownership: Publicly-owned
Owner: CITY OF BAGLEY
PO BOX 178
BAGLEY, MN 56621-0178
Phone 218-694-2865
Manager: BILL MASTERSON
PO BOX 178
BAGLEY, MN 56621-0178
Phone 218-556-7812

Airport Operational Statistics

Aircraft based on the field: 4
Single engine airplanes: 4
    
Aircraft operations: avg 46/week *
83% transient general aviation
17% local general aviation
* for 12-month period ending 30 April 2017

Additional Remarks

A58-32 19 FT TREE, 114 FT DIST, 210 FT L.
FOR CD CTC MINNEAPOLIS ARTCC AT 651-463-5588.

Instrument Procedures

There are no published instrument procedures at 7Y4.

Some nearby airports with instrument procedures:

KFSE - Fosston Municipal Airport/Anderson Field (17 nm W)
KBJI - Bemidji Regional Airport (17 nm E)
3N8 - Mahnomen County Airport (28 nm SW)
Y49 - Walker Municipal Airport (36 nm SE)
KPKD - Park Rapids Municipal Airport-Konshok Field (39 nm S)
 
Loc | Ops | Rwys | IFR | FBO | Links
Com | Nav | Svcs | Stats | Notes
Area around 7Y4 (Bagley Municipal Airport)
 
Road maps at: MapQuest Bing Google
 
Aerial photo
No photo
 
Sectional chart

 
Airport distance calculator
Flying to Bagley Municipal Airport? Find the distance to fly.

From to 7Y4

Sunrise and sunset
Times for 08-Feb-2023
 Local
(UTC-6)
 Zulu
(UTC)
Morning civil twilight07:0713:07
Sunrise07:3913:39
Sunset17:3223:32
Evening civil twilight18:0500:05

Current date and time
Zulu (UTC)  09-Feb-2023 00:33:40
Local (UTC-6)  08-Feb-2023 18:33:40
 
METAR
KFSE 
17nm W 
090015Z AUTO 19008KT 10SM BKN090 120 02/M03 A2986 RMK AO2
KBJI 
18nm E 
090015Z AUTO 16005KT 10SM BKN110 04/M02 A2985 RMK AO2 T00371016
K3N8 
28nm SW 
090015Z AUTO 20007KT 10SM BKN110 01/M02 A2986 RMK AO2 T00061024
TAF
KBJI 
18nm E 
081735Z 0818/0918 14005KT P6SM SKC FM090700 VRB04KT P6SM BKN028 FM091000 35009KT P6SM BKN006 FM091400 35019G29KT P6SM BKN010 FM091600 35018G28KT P6SM BKN012 FM091700 35017G26KT P6SM BKN025
NOTAMs
Click for the latest NOTAMs
NOTAMs are issued by the DoD/FAA and will open in a separate window not controlled by AirNav.

 

 
 

Would you like to see your business listed on this page?

 If your business provides an interesting product or service to pilots, flight crews, aircraft, or users of the Bagley Municipal Airport, you should consider listing it here.  To start the listing process, click on the button below
 
Add a business
 

Other Pages about Bagley Municipal Airport

Update a link
 
Copyright © AirNav, LLC. All rights reserved. Privacy Policy  Contact